Regional Weather Roundup
Issued by NWS

Home | Current Version | Previous Version | Text Only | Print | Product List | Glossary On
Versions: 1 2 3 4 5 6 7 8 9 10 11 12 13 14 15 16 17 18 19 20 21 22 23 24 25 26 27 28 29 30 31 32 33 34 35 36 37 38 39 40 41 42 43 44 45 46 47 48 49 50
000
ASCA44 KEWX 032320
RWRMX

LATIN AMERICA AND CARIBBEAN REGIONAL WEATHER ROUNDUP
NATIONAL WEATHER SERVICE AUSTIN/SAN ANTONIO TX
600 PM CDT WED JUN 03 2020

NOTE: "FAIR" INDICATED FEW OR NO CLOUDS BELOW 12,000 FEET WITH NO
SIGNIFICANT WEATHER AND/OR OBSTRUCTIONS TO VISIBILITY.

BAJA CALIFORNIA

CITY           SKY/WX    TMP DP  RH WIND       PRES   REMARKS
LORETO         SUNNY     95  86  75 NE12      29.73F HX 128
LA PAZ         SUNNY     90  54  29 S16       29.79F
MEXICALI       MOSUNNY  108  36   8 SE8       29.70F HX 101
S.J. DEL CABO  SUNNY     95  52  23 E12       29.77F HX  92
TIJUANA        SUNNY     79  59  50 NW16      29.90S

NORTHWESTERN MEXICO

CITY           SKY/WX    TMP DP  RH WIND       PRES   REMARKS
CULIACAN       SUNNY     95  73  49 CALM      29.70F HX 105
DURANGO        PTSUNNY   90  28  11 NE9       30.10F
GUAYMAS        SUNNY     95  75  52 SW16      29.68F HX 107
HERMOSILLO     SUNNY    109  54  16 SW9       29.76F HX 108
CD. JUAREZ     MOSUNNY   97  43  15 SW13      29.95F HX  92
LOS MOCHIS     SUNNY     93  61  33 W17       29.72F HX  93
OBREGON        SUNNY    104  55  20 W13       29.68F HX 103

NORTHEASTERN MEXICO

CITY           SKY/WX    TMP DP  RH WIND       PRES   REMARKS
CHIHUAHUA      MOSUNNY   97  36  11 N9        29.99F HX  92
MATAMOROS      MOSUNNY   88  73  62 E13       29.87F HX  96
MONCLOVA         N/A    N/A N/A N/A MISG        N/A
MONTERREY      MOSUNNY   90  66  45 E15       29.86F HX  92
NUEVO LAREDO   MOSUNNY   91  70  49 S9        29.85F HX  97
PIEDRAS NEGRAS MOSUNNY   93  64  38 SE6       29.87S HX  95
REYNOSA        MOSUNNY   88  68  51 E14       29.86F HX  91
SALTILLO       SUNNY     86  54  32 N14       30.10
TORREON        MOSUNNY   97  50  20 N8        29.93F HX  94
CD. VICTORIA   PTSUNNY   90  66  45 NE8       29.86F HX  92

WESTERN MEXICO

CITY           SKY/WX    TMP DP  RH WIND       PRES   REMARKS
AGUASCALIENTES MOSUNNY   90  30  12 N12       30.05F
COLIMA         MOSUNNY   81  72  74 W12       29.79F
DEL BAJIO      PTSUNNY   88  43  20 E14       30.08F
GUADALAJARA    MOSUNNY   93  46  20 CALM      29.94F
MANZANILLO     MOSUNNY   77  72  83 W23       29.68F
MAZATLAN       MOSUNNY   82  66  57 W8        29.75F
P. VALLARTA    MOSUNNY   81  72  74 SW16      29.74F
URUAPAN        SUNNY     84  55  37 S9        29.95F
ZACATECAS      MOSUNNY   82  37  20 NE16      30.16F

CENTRAL MEXICO

CITY           SKY/WX    TMP DP  RH WIND       PRES   REMARKS
CUERNAVACA     PTSUNNY   93  52  24 S7        29.86S HX  90
MEXICO CITY    PTSUNNY   75  48  38 N12       30.19F
MORELIA        PTSUNNY   86  45  23 N10       30.02F
POZA RICA      MOSUNNY   82  75  78 CALM      29.84S
PUEBLA         MOSUNNY   73  46  38 N13G24    30.17S
QUERETARO      PTSUNNY   81  50  34 NE21      30.15F
S. LUIS POTOSI MOSUNNY   81  46  30 E14       30.11F
TAMPICO        MOSUNNY   84  75  74 N15       29.83F HX  92
TOLUCA         PTSUNNY   72  46  40 N12       30.24F

SOUTHERN MEXICO

CITY           SKY/WX    TMP DP  RH WIND       PRES   REMARKS
ACAPULCO       MOSUNNY   82  75  78 W13       29.71F
B. DE HUATULCO RAIN      77  72  83 CALM      29.76R
OAXACA         CLOUDY    77  59  53 E3        29.99S
P. ESCONDIDO   CLOUDY    82  75  78 W8        29.76R
VERACRUZ       PTSUNNY   82  73  74 N20       29.74S
ZIHUATANEJO      N/A    N/A N/A N/A MISG        N/A

YUCATAN PENINSULA

CITY           SKY/WX    TMP DP  RH WIND       PRES   REMARKS
CAMPECHE       CLOUDY    79  75  89 E14       29.65R
CANCUN         CLOUDY    84  75  74 E16       29.78S HX  92
CHETUMAL       CLOUDY    84  77  79 SE21      29.65F HX  94
CD. DEL CARMEN LGT RAIN  77  75  94 E12       29.39F VSB 1
COZUMEL        CLOUDY    84  77  79 SE13      29.75R HX  94
MERIDA         LGT RAIN  81  75  83 E14       29.70R
MINATITLAN     CLOUDY    81  77  89 N8        29.67S
TAPACHULA      CLOUDY    73  73 100 NE3       29.78R
TUX. GUTIERREZ RAIN      73  72  94 CALM      29.76R
VILLAHERMOSA   DRIZZLE   75  75 100 W9        29.64R

CENTRAL AMERICA

CITY           SKY/WX    TMP DP  RH WIND       PRES   REMARKS
BELIZE CITY    MOSUNNY   86  79  79 E10       29.63R HX  99

CARIBBEAN

CITY           SKY/WX    TMP DP  RH WIND       PRES   REMARKS
ARUBA          PTCLDY    82  73  74 E22       29.86R
CURACAO        PTCLDY    82  73  74 E15       29.86S
KINGSTON       PTCLDY    84  75  74 SE22      29.86S HX  92
NASSAU         PTSUNNY   82  72  69 SE12      29.99R
SAN JUAN       PTCLDY    82  75  78 E14       30.00R
SANTO DOMINGO  PTCLDY    84  73  70 SE7       29.94R HX  91
ST. CROIX      PTCLDY    84  72  65 E12       30.01R
ST. KITTS      PTCLDY    82  73  74 E18       30.00S
ST. MAARTEN    PTCLDY    84  73  70 E13       30.03S HX  91
ST. THOMAS     PTCLDY    84  72  65 E10       30.00R

$$




USA.gov is the U.S. government's official web portal to all federal, state and local government web resources and services.